20050115,000027,952606,33.567260,-120.775266,25.0,14.728,33.138,40.613,1469.39,0.0,2.388,0.444,14.384, NaN,24.595,   NaN,13.63,1019.66,88.47,13.84,282.6,277.5,3.7,7.9,300.2,324.9,4.4,8.1,NaN, NaN,11.4,81.0,75.0,1105747227,1105747227,1,6.8,000026,000027,67.4,33.567238,-120.775376,0.34,NaN,NaN,14.732, NaN,NaN,NaN, NaN, NaN
20050115,000056,952634,33.567630,-120.774075,25.0,14.722,33.143,40.613,1464.79,0.0,2.482,-0.050,14.383, NaN,24.600,   NaN,13.63,1019.67,88.70,13.84,285.4,282.0,5.8,8.4,316.5,325.5,6.0,8.5,NaN, NaN,11.6,74.0,68.5,1105747256,1105747256,1,8.4,000056,000056,68.2,33.567608,-120.774220,0.39,NaN,NaN,14.726, NaN,NaN,NaN, NaN, NaN
20050115,000127,952666,33.568100,-120.772636,25.2,14.717,33.143,40.609,1458.39,0.0,2.482,0.967,14.383, NaN,24.601,   NaN,13.57,1019.71,88.56,13.81,288.1,285.5,6.6,9.1,318.4,326.0,6.8,9.0,NaN, NaN,11.7,57.6,64.3,1105747287,1105747287,1,9.5,000087,000087,72.8,33.568080,-120.772775,0.41,NaN,NaN,14.721, NaN,NaN,NaN, NaN, NaN
20050115,000156,952695,33.568331,-120.771141,25.3,14.715,33.143,40.607,1463.64,0.0,2.577,0.689,14.383, NaN,24.601,   NaN,13.67,1019.72,88.80,13.89,286.3,284.7,6.5,8.8,318.9,327.7,6.9,8.9,NaN, NaN,11.3,85.5,78.7,1105747316,1105747316,1,9.6,000116,000116,78.2,33.568326,-120.771280,0.30,NaN,NaN,14.719, NaN,NaN,NaN, NaN, NaN
20050115,000227,952725,33.568703,-120.769538,25.2,14.717,33.140,40.606,1456.39,0.0,2.558,-0.160,14.383, NaN,24.599,   NaN,13.65,1019.68,88.51,13.93,288.9,286.5,6.6,8.8,322.1,330.1,6.9,8.9,NaN, NaN,11.8,66.5,69.2,1105747347,1105747346,1,10.3,000146,000146,70.9,33.568675,-120.769671,0.44,NaN,NaN,14.721, NaN,NaN,NaN, NaN, NaN
20050115,000257,952755,33.569198,-120.767953,25.2,14.715,33.142,40.606,1440.95,0.0,2.539,0.877,14.383, NaN,24.601,   NaN,13.59,1019.69,88.80,13.85,293.4,291.2,7.5,9.5,322.5,329.4,7.3,9.2,NaN, NaN,11.5,68.3,68.5,1105747377,1105747376,1,10.2,000176,000176,66.2,33.569165,-120.768088,0.56,NaN,NaN,14.719, NaN,NaN,NaN, NaN, NaN
20050115,000327,952786,33.569778,-120.766386,25.3,14.715,33.138,40.602,1441.00,0.0,2.652,-0.183,14.384, NaN,24.598,   NaN,13.66,1019.69,89.32,13.88,297.3,295.6,8.3,9.6,325.0,329.1,7.6,8.8,NaN, NaN,12.1,58.7,64.1,1105747407,1105747407,1,10.6,000206,000207,63.5,33.569766,-120.766470,0.35,NaN,NaN,14.719, NaN,NaN,NaN, NaN, NaN
20050115,000357,952816,33.570405,-120.764833,25.2,14.722,33.135,40.605,1436.96,0.0,2.652,-0.169,14.386, NaN,24.594,   NaN,13.56,1019.58,88.99,13.85,300.9,299.1,9.5,9.9,330.7,330.9,8.2,8.8,NaN, NaN,11.5,61.8,67.0,1105747437,1105747436,1,10.1,000236,000236,62.2,33.570368,-120.764970,0.61,NaN,NaN,14.726, NaN,NaN,NaN, NaN, NaN
20050115,000427,952845,33.571063,-120.763310,25.4,14.725,33.136,40.608,1430.60,0.0,2.671,-0.044,14.392, NaN,24.594,   NaN,13.54,1019.67,89.21,13.77,301.2,299.5,9.7,10.0,330.7,330.5,8.4,8.8,NaN, NaN,11.6,62.4,65.6,1105747467,1105747466,1,10.5,000266,000266,63.7,33.571026,-120.763438,0.27,NaN,NaN,14.729, NaN,NaN,NaN, NaN, NaN
20050115,000457,952875,33.571753,-120.761796,25.3,14.731,33.135,40.613,1424.98,0.0,2.652,-0.171,14.396, NaN,24.592,   NaN,13.58,1019.63,89.26,13.84,301.8,300.0,9.6,9.9,330.1,329.6,8.2,8.7,NaN, NaN,10.5,63.8,59.9,1105747497,1105747496,1,10.6,000296,000296,60.7,33.571703,-120.761925,0.45,NaN,NaN,14.735, NaN,NaN,NaN, NaN, NaN
20050115,000527,952905,33.572323,-120.760561,24.7,14.730,33.141,40.619,1417.70,0.0,2.709,-0.166,14.399, NaN,24.597,   NaN,13.53,1019.72,89.15,13.80,299.2,296.5,8.8,9.7,325.8,326.5,7.8,8.8,NaN, NaN,11.7,50.8,58.7,1105747527,1105747527,1,6.4,000326,000327,50.1,33.572273,-120.760665,0.75,NaN,NaN,14.734, NaN,NaN,NaN, NaN, NaN
20050115,000557,952936,33.572775,-120.759980,24.5,14.733,33.136,40.616,705.36,0.0,2.652,-0.172,14.401, NaN,24.593,   NaN,13.57,1019.70,89.42,13.87,301.2,297.5,8.2,9.1,325.1,324.2,7.5,8.4,NaN, NaN,11.4,50.2,43.8,1105747557,1105747557,1,4.0,000356,000357,28.9,33.572690,-120.760056,0.76,NaN,NaN,14.737, NaN,NaN,NaN, NaN, NaN
20050115,000627,952966,33.573131,-120.759696,24.6,14.747,33.128,40.620,977.76,0.0,2.747,-0.083,14.402, NaN,24.583,   NaN,13.51,1019.76,88.88,13.90,311.0,308.8,8.2,8.9,326.7,325.5,7.4,8.2,NaN, NaN,11.9,348.4,11.8,1105747587,1105747586,1,2.8,000386,000386,12.9,33.573008,-120.759768,0.72,NaN,NaN,14.751, NaN,NaN,NaN, NaN, NaN
20050115,000657,952996,33.573553,-120.759476,24.7,14.751,33.133,40.630,1270.64,0.0,2.690,0.845,14.404, NaN,24.586,   NaN,13.48,1019.71,88.90,13.83,318.2,318.9,8.0,8.9,326.5,328.6,7.1,8.0,NaN, NaN,12.3,336.2,18.7,1105747617,1105747616,1,4.0,000416,000416,28.6,33.573451,-120.759583,0.38,NaN,NaN,14.755, NaN,NaN,NaN, NaN, NaN
20050115,000727,953025,33.573998,-120.758991,24.8,14.748,33.135,40.630,820.49,0.0,2.652,0.862,14.404, NaN,24.589,   NaN,13.54,1019.66,89.02,13.91,306.3,307.9,8.2,9.2,325.9,329.4,7.3,8.2,NaN, NaN,12.9,47.9,61.3,1105747647,1105747647,1,4.5,000447,000447,58.6,33.573948,-120.759141,0.29,NaN,NaN,14.752, NaN,NaN,NaN, NaN, NaN
20050115,000756,953055,33.574350,-120.758346,24.8,14.748,33.126,40.619,1338.93,0.0,2.690,-0.222,14.404, NaN,24.582,   NaN,13.49,1019.64,89.08,13.82,291.7,291.2,7.3,9.0,323.3,327.0,6.9,8.5,NaN, NaN,12.9,74.3,65.7,1105747677,1105747677,1,5.2,000476,000477,54.6,33.574295,-120.758456,0.50,NaN,NaN,14.752, NaN,NaN,NaN, NaN, NaN
20050115,000826,953085,33.574751,-120.757613,24.8,14.743,33.118,40.606,1371.40,0.0,2.652,-0.223,14.403, NaN,24.576,   NaN,13.51,1019.63,89.28,13.84,291.9,289.4,6.7,8.6,323.1,326.0,6.3,8.3,NaN, NaN,12.1,65.0,65.7,1105747707,1105747706,1,5.5,000506,000506,53.4,33.574688,-120.757750,0.47,NaN,NaN,14.747, NaN,NaN,NaN, NaN, NaN
20050115,000857,953116,33.575171,-120.756888,24.8,14.743,33.103,40.589,1355.98,0.0,2.728,-0.177,14.403, NaN,24.565,   NaN,13.43,1019.62,88.91,13.79,293.4,290.8,7.0,8.9,324.5,326.8,6.5,8.4,NaN, NaN,12.5,68.3,63.7,1105747737,1105747737,1,5.5,000536,000537,54.4,33.575118,-120.756991,0.33,NaN,NaN,14.747, NaN,NaN,NaN, NaN, NaN
20050115,000927,953146,33.575590,-120.756156,24.7,14.741,33.126,40.613,1355.00,0.0,2.766,-0.224,14.401, NaN,24.583,   NaN,13.39,1019.62,88.82,13.70,292.3,290.5,7.2,9.2,324.2,327.5,6.7,8.7,NaN, NaN,10.7,49.2,52.7,1105747767,1105747767,1,5.2,000566,000567,54.2,33.575535,-120.756265,0.45,NaN,NaN,14.745, NaN,NaN,NaN, NaN, NaN
20050115,000957,953176,33.575995,-120.755421,24.8,14.740,33.132,40.618,1345.30,0.0,2.803,-0.204,14.400, NaN,24.588,   NaN,13.42,1019.64,88.70,13.70,291.5,290.0,7.0,9.2,322.7,326.9,6.6,8.7,NaN, NaN,12.4,45.5,49.3,1105747797,1105747796,1,5.5,000596,000596,54.2,33.575933,-120.755555,0.56,NaN,NaN,14.744, NaN,NaN,NaN, NaN, NaN
20050115,001027,953205,33.576401,-120.754685,24.7,14.739,33.134,40.619,1336.04,0.0,2.803,-0.172,14.399, NaN,24.590,   NaN,13.53,1019.64,88.89,13.76,291.4,289.9,6.5,8.5,321.1,325.7,6.1,8.1,NaN, NaN,11.4,44.2,62.8,1105747827,1105747826,1,5.2,000626,000626,55.8,33.576343,-120.754821,0.52,NaN,NaN,14.743, NaN,NaN,NaN, NaN, NaN
20050115,001057,953235,33.576743,-120.754111,24.5,14.736,33.134,40.617,1011.96,0.0,2.822,-0.218,14.397, NaN,24.591,   NaN,13.51,1019.64,88.42,13.78,296.5,293.8,6.6,8.1,325.3,327.3,6.1,7.7,NaN, NaN,12.4,17.9,56.2,1105747857,1105747856,1,3.4,000656,000656,32.2,33.576645,-120.754220,0.62,NaN,NaN,14.740, NaN,NaN,NaN, NaN, NaN
20050115,001127,953265,33.577040,-120.753873,24.6,14.733,33.137,40.617,1205.55,0.0,2.822,-0.220,14.396, NaN,24.594,   NaN,13.42,1019.72,87.79,13.73,316.0,313.0,7.3,8.0,331.5,329.9,6.7,7.5,NaN, NaN,13.2,45.2,32.8,1105747887,1105747887,1,1.9,000687,000687,358.1,33.576910,-120.753906,0.64,NaN,NaN,14.737, NaN,NaN,NaN, NaN, NaN
20050115,001156,953294,33.577228,-120.753808,24.6,14.734,33.124,40.604,1126.33,0.0,2.784,-0.224,14.395, NaN,24.583,   NaN,13.45,1019.74,87.66,13.71,339.9,340.1,7.8,7.6,333.7,334.0,7.1,7.0,NaN, NaN,13.0,40.3,29.0,1105747917,1105747916,1,1.3,000716,000716,342.1,33.577095,-120.753790,0.58,NaN,NaN,14.738, NaN,NaN,NaN, NaN, NaN
20050115,001227,953326,33.577418,-120.753821,24.9,14.734,33.113,40.591,1267.35,0.0,2.803,-0.222,14.393, NaN,24.574,   NaN,13.49,1019.69,86.81,13.74,353.4,356.9,8.1,7.9,334.6,338.2,7.5,7.3,NaN, NaN,13.7,358.0,329.7,1105747947,1105747947,1,1.7,000747,000747,340.2,33.577291,-120.753800,0.28,NaN,NaN,14.738, NaN,NaN,NaN, NaN, NaN
20050115,001257,953355,33.577608,-120.753833,24.7,14.734,33.118,40.597,1184.41,0.0,2.822,-0.133,14.395, NaN,24.579,   NaN,13.53,1019.71,86.49,13.77,353.9,358.3,8.0,8.0,334.2,339.0,7.3,7.3,NaN, NaN,14.1,290.5,346.6,1105747977,1105747976,1,1.2,000776,000776,348.6,33.577475,-120.753841,0.18,NaN,NaN,14.738, NaN,NaN,NaN, NaN, NaN
20050115,001327,953385,33.577741,-120.753831,24.5,14.733,33.123,40.602,1312.17,0.0,2.803,-0.191,14.395, NaN,24.583,   NaN,13.62,1019.75,86.27,13.86,348.1,352.0,7.5,7.2,333.8,338.1,6.9,6.7,NaN, NaN,14.2,321.9,34.1,1105748007,1105748007,1,0.8,000806,000807,349.6,33.577611,-120.753841,0.02,NaN,NaN,14.737, NaN,NaN,NaN, NaN, NaN
20050115,001357,953415,33.577781,-120.753785,24.6,14.731,33.129,40.607,1298.77,0.0,2.766,-0.220,14.395, NaN,24.588,   NaN,13.64,1019.74,86.10,13.91,346.8,349.4,6.9,6.5,333.6,336.1,6.7,6.2,NaN, NaN,14.2,54.6,93.8,1105748037,1105748037,1,0.0,000836,000837,347.7,33.577645,-120.753788,0.20,NaN,NaN,14.735, NaN,NaN,NaN, NaN, NaN
20050115,001427,953446,33.577791,-120.753721,24.6,14.730,33.128,40.605,1295.36,0.0,2.766,-0.219,14.396, NaN,24.587,   NaN,13.68,1019.73,86.00,13.96,347.9,350.8,7.0,6.3,334.3,337.0,7.0,6.3,NaN, NaN,13.3,71.2,33.0,1105748068,1105748068,1,0.4,000867,000868,349.7,33.577655,-120.753725,0.26,NaN,NaN,14.734, NaN,NaN,NaN, NaN, NaN
20050115,001457,953476,33.577830,-120.753641,24.6,14.731,33.130,40.608,1284.88,0.0,2.860,-0.221,14.396, NaN,24.588,   NaN,13.67,1019.73,85.99,13.96,349.1,352.6,7.2,6.5,335.3,338.6,7.2,6.5,NaN, NaN,14.2,48.1,55.8,1105748097,1105748097,1,0.8,000897,000897,344.7,33.577690,-120.753640,0.27,NaN,NaN,14.735, NaN,NaN,NaN, NaN, NaN
20050115,001527,953506,33.577911,-120.753595,24.5,14.728,33.133,40.609,909.46,0.0,2.879,-0.220,14.396, NaN,24.592,   NaN,13.72,1019.68,86.15,14.02,352.0,358.0,7.1,6.9,334.0,339.7,7.1,6.8,NaN, NaN,15.0,27.5,33.6,1105748127,1105748127,1,0.9,000926,000927,337.6,33.577773,-120.753573,0.24,NaN,NaN,14.732, NaN,NaN,NaN, NaN, NaN
20050115,001557,953535,33.578008,-120.753563,24.5,14.726,33.128,40.601,332.51,0.0,3.011,-0.223,14.396, NaN,24.588,   NaN,13.68,1019.68,86.11,14.00,1.9,6.9,7.1,7.3,336.3,341.5,6.9,7.1,NaN, NaN,16.4,29.0,35.1,1105748157,1105748157,1,1.0,000957,000957,329.9,33.577876,-120.753535,0.14,NaN,NaN,14.730, NaN,NaN,NaN, NaN, NaN
20050115,001628,953567,33.578113,-120.753595,24.5,14.726,33.131,40.605,422.63,0.0,3.124,-0.219,14.396, NaN,24.591,   NaN,13.68,1019.66,86.13,14.03,11.6,13.1,7.3,7.6,340.5,342.2,6.9,7.2,NaN, NaN,14.5,352.9,20.4,1105748188,1105748188,1,0.8,000987,000988,327.2,33.577978,-120.753540,0.06,NaN,NaN,14.730, NaN,NaN,NaN, NaN, NaN
20050115,001658,953596,33.578193,-120.753636,24.7,14.725,33.132,40.605,680.22,0.0,3.237,-0.217,14.395, NaN,24.591,   NaN,13.71,1019.64,85.98,14.01,12.7,14.3,7.3,7.6,339.6,341.3,6.9,7.2,NaN, NaN,14.1,339.8,337.2,1105748218,1105748218,1,0.9,001017,001018,328.4,33.578066,-120.753586,0.04,NaN,NaN,14.729, NaN,NaN,NaN, NaN, NaN
20050115,001728,953626,33.578306,-120.753665,24.6,14.727,33.131,40.605,274.60,0.0,3.049,-0.207,14.393, NaN,24.590,   NaN,13.76,1019.63,86.13,14.07,7.8,11.1,7.0,7.3,335.8,339.3,6.6,6.9,NaN, NaN,13.7,17.7,315.8,1105748248,1105748248,1,0.8,001047,001048,332.7,33.578163,-120.753631,-0.12,NaN,NaN,14.731, NaN,NaN,NaN, NaN, NaN
20050115,001758,953656,33.578395,-120.753705,24.8,14.729,33.129,40.605,271.27,0.0,2.992,-0.115,14.394, NaN,24.588,   NaN,13.70,1019.65,85.90,14.04,1.0,5.3,6.9,7.3,332.3,337.0,6.6,6.9,NaN, NaN,13.8,43.3,21.7,1105748278,1105748278,1,0.8,001077,001078,333.7,33.578261,-120.753661,0.03,NaN,NaN,14.733, NaN,NaN,NaN, NaN, NaN
20050115,001827,953685,33.578460,-120.753718,24.7,14.728,33.130,40.605,265.96,0.0,2.954,-0.139,14.394, NaN,24.589,   NaN,13.69,1019.58,86.01,14.04,358.3,3.0,6.7,7.2,330.4,335.4,6.4,6.9,NaN, NaN,13.8,50.6,321.9,1105748308,1105748307,1,0.3,001107,001107,331.1,33.578318,-120.753663,0.09,NaN,NaN,14.732, NaN,NaN,NaN, NaN, NaN
20050115,001858,953717,33.578506,-120.753703,24.7,14.728,33.132,40.607,292.01,0.0,2.992,-0.221,14.396, NaN,24.591,   NaN,13.71,1019.60,85.94,14.07,2.5,6.6,6.5,6.9,331.0,335.6,6.3,6.8,NaN, NaN,13.1,36.8,11.5,1105748338,1105748338,1,0.4,001137,001138,328.4,33.578363,-120.753651,-0.51,NaN,NaN,14.732, NaN,NaN,NaN, NaN, NaN
20050115,001928,953747,33.578550,-120.753721,24.6,14.726,33.134,40.608,270.64,0.0,2.992,-0.218,14.397, NaN,24.593,   NaN,13.75,1019.58,85.98,14.07,6.9,10.1,6.6,6.8,334.5,337.9,6.4,6.6,NaN, NaN,13.1,29.9,321.6,1105748368,1105748368,1,0.5,001167,001168,335.1,33.578413,-120.753683,0.08,NaN,NaN,14.730, NaN,NaN,NaN, NaN, NaN
20050115,001957,953775,33.578605,-120.753713,24.5,14.725,33.133,40.606,391.28,0.0,3.086,-0.107,14.398, NaN,24.592,   NaN,13.72,1019.56,85.86,14.07,6.9,8.9,6.5,6.7,339.2,341.4,6.3,6.5,NaN, NaN,13.4,253.8,268.0,1105748398,1105748398,1,0.4,001197,001198,337.6,33.578453,-120.753683,-0.06,NaN,NaN,14.729, NaN,NaN,NaN, NaN, NaN
20050115,002027,953806,33.578631,-120.753698,24.5,14.726,33.131,40.605,274.15,0.0,3.219,-0.217,14.398, NaN,24.591,   NaN,13.72,1019.56,86.06,14.05,2.3,4.3,6.1,6.5,337.4,339.7,6.0,6.4,NaN, NaN,13.3,52.7,38.9,1105748428,1105748428,1,0.4,001227,001228,336.9,33.578488,-120.753661,0.06,NaN,NaN,14.730, NaN,NaN,NaN, NaN, NaN
20050115,002057,953836,33.578651,-120.753676,24.6,14.725,33.133,40.606,260.02,0.0,3.162,-0.219,14.398, NaN,24.592,   NaN,13.74,1019.57,86.08,14.13,354.2,360.0,5.9,6.2,328.1,334.1,5.9,6.2,NaN, NaN,13.1,68.2,266.0,1105748457,1105748457,1,0.3,001257,001257,336.7,33.578508,-120.753638,0.23,NaN,NaN,14.729, NaN,NaN,NaN, NaN, NaN
20050115,002128,953867,33.578658,-120.753635,24.6,14.726,33.131,40.605,258.95,0.0,3.219,-0.203,14.397, NaN,24.591,   NaN,13.67,1019.56,85.94,14.09,351.8,357.4,6.0,6.1,326.5,332.1,6.0,6.1,NaN, NaN,13.5,64.7,109.6,1105748488,1105748488,1,0.2,001287,001288,338.1,33.578513,-120.753601,0.18,NaN,NaN,14.730, NaN,NaN,NaN, NaN, NaN
20050115,002158,953897,33.578651,-120.753585,24.7,14.727,33.133,40.607,391.89,0.0,3.256,-0.199,14.397, NaN,24.591,   NaN,13.69,1019.60,86.30,14.07,356.1,356.3,5.9,5.9,332.5,332.7,5.9,5.9,NaN, NaN,13.7,90.2,108.1,1105748518,1105748517,1,0.5,001317,001317,339.9,33.578500,-120.753556,0.28,NaN,NaN,14.731, NaN,NaN,NaN, NaN, NaN
20050115,002228,953927,33.578636,-120.753533,24.7,14.726,33.133,40.607,1031.78,0.0,3.294,-0.219,14.398, NaN,24.592,   NaN,13.66,1019.57,85.99,14.05,357.9,358.7,6.1,6.2,336.0,336.7,6.1,6.2,NaN, NaN,13.2,58.3,248.2,1105748548,1105748548,1,0.3,001348,001348,341.9,33.578490,-120.753511,0.17,NaN,NaN,14.730, NaN,NaN,NaN, NaN, NaN
20050115,002257,953956,33.578681,-120.753486,24.6,14.723,33.135,40.605,1094.15,0.0,3.294,-0.202,14.400, NaN,24.594,   NaN,13.66,1019.60,85.97,14.00,359.3,2.2,6.4,6.5,337.8,340.8,6.3,6.5,NaN, NaN,13.8,63.6,88.8,1105748578,1105748578,1,0.5,001377,001378,340.2,33.578536,-120.753461,0.19,NaN,NaN,14.727, NaN,NaN,NaN, NaN, NaN
20050115,002327,953986,33.578710,-120.753455,24.6,14.720,33.135,40.603,310.39,0.0,3.294,-0.221,14.400, NaN,24.595,   NaN,13.69,1019.65,85.97,14.01,2.9,5.0,6.0,6.4,340.0,342.4,5.9,6.3,NaN, NaN,13.7,55.4,57.0,1105748607,1105748607,1,0.3,001407,001407,336.2,33.578565,-120.753418,0.21,NaN,NaN,14.724, NaN,NaN,NaN, NaN, NaN
20050115,002358,954016,33.578721,-120.753413,24.7,14.721,33.131,40.600,254.27,0.0,3.370,-0.219,14.399, NaN,24.591,   NaN,13.72,1019.63,85.94,14.07,7.0,9.4,5.8,6.3,339.4,342.0,5.7,6.2,NaN, NaN,14.2,63.1,142.2,1105748638,1105748638,1,0.3,001438,001438,330.4,33.578576,-120.753358,0.18,NaN,NaN,14.725, NaN,NaN,NaN, NaN, NaN
20050115,002428,954047,33.578716,-120.753363,24.6,14.720,33.134,40.602,758.84,0.0,3.351,-0.213,14.396, NaN,24.594,   NaN,13.69,1019.63,85.52,14.06,13.2,15.6,5.9,6.4,340.1,342.6,5.8,6.3,NaN, NaN,13.8,62.7,158.4,1105748669,1105748668,1,0.4,001468,001468,326.1,33.578575,-120.753295,0.05,NaN,NaN,14.724, NaN,NaN,NaN, NaN, NaN
20050115,002458,954077,33.578755,-120.753365,24.7,14.722,33.134,40.604,725.05,0.0,3.351,-0.205,14.396, NaN,24.594,   NaN,13.73,1019.65,85.63,14.05,19.2,20.0,5.9,6.4,344.6,345.6,5.8,6.3,NaN, NaN,13.4,41.1,27.7,1105748698,1105748698,1,0.6,001498,001498,332.2,33.578603,-120.753313,0.00,NaN,NaN,14.726, NaN,NaN,NaN, NaN, NaN
20050115,002527,954105,33.578826,-120.753400,24.7,14.723,33.132,40.602,248.71,0.0,3.407,-0.202,14.394, NaN,24.592,   NaN,13.84,1019.64,85.92,14.15,17.3,18.1,5.9,6.1,347.9,348.8,5.7,5.9,NaN, NaN,13.8,354.2,12.2,1105748728,1105748728,1,0.7,001527,001528,335.5,33.578685,-120.753360,0.00,NaN,NaN,14.727, NaN,NaN,NaN, NaN, NaN
20050115,002559,954138,33.578896,-120.753411,24.7,14.724,33.132,40.604,247.19,0.0,3.313,-0.216,14.391, NaN,24.592,   NaN,13.74,1019.62,85.58,14.15,9.8,13.1,6.2,6.3,344.6,348.0,5.9,6.0,NaN, NaN,13.9,62.8,38.6,1105748759,1105748758,1,0.4,001558,001558,333.9,33.578753,-120.753373,0.01,NaN,NaN,14.728, NaN,NaN,NaN, NaN, NaN
20050115,002628,954166,33.578931,-120.753418,24.5,14.723,33.132,40.603,266.47,0.0,3.388,-0.033,14.392, NaN,24.592,   NaN,13.66,1019.65,85.51,14.07,10.5,13.4,5.9,6.2,343.2,346.2,5.7,6.0,NaN, NaN,13.3,233.6,238.4,1105748788,1105748788,1,0.4,001588,001588,328.9,33.578791,-120.753363,0.06,NaN,NaN,14.727, NaN,NaN,NaN, NaN, NaN
20050115,002658,954197,33.578950,-120.753400,24.6,14.725,33.132,40.605,1104.25,0.0,3.370,-0.149,14.392, NaN,24.591,   NaN,13.71,1019.62,85.43,14.07,19.8,21.1,5.5,5.9,347.3,348.7,5.4,5.9,NaN, NaN,13.6,234.6,191.6,1105748819,1105748819,1,0.5,001618,001619,321.7,33.578806,-120.753328,-0.13,NaN,NaN,14.729, NaN,NaN,NaN, NaN, NaN
20050115,002728,954227,33.578958,-120.753393,24.7,14.726,33.132,40.606,1120.18,0.0,3.275,-0.206,14.393, NaN,24.591,   NaN,13.79,1019.63,85.37,14.11,30.7,29.6,5.3,5.5,351.9,350.7,5.2,5.5,NaN, NaN,13.2,24.3,9.8,1105748848,1105748848,1,0.7,001648,001648,318.7,33.578828,-120.753318,-0.12,NaN,NaN,14.730, NaN,NaN,NaN, NaN, NaN
20050115,002758,954257,33.579005,-120.753456,24.7,14.727,33.133,40.607,1109.18,0.0,3.275,-0.222,14.391, NaN,24.591,   NaN,13.76,1019.63,84.67,14.08,31.8,30.4,5.4,5.8,352.7,351.1,5.3,5.7,NaN, NaN,13.3,286.1,291.5,1105748878,1105748878,1,0.6,001678,001678,325.9,33.578870,-120.753398,-0.20,NaN,NaN,14.731, NaN,NaN,NaN, NaN, NaN
20050115,002827,954286,33.579050,-120.753501,24.6,14.726,33.133,40.607,741.44,0.0,3.351,-0.217,14.392, NaN,24.592,   NaN,13.78,1019.66,84.56,14.07,24.4,24.1,5.8,6.3,351.9,351.4,5.6,6.2,NaN, NaN,13.5,348.4,8.2,1105748908,1105748908,1,0.4,001707,001708,331.1,33.578915,-120.753460,-0.29,NaN,NaN,14.730, NaN,NaN,NaN, NaN, NaN
20050115,002858,954316,33.579081,-120.753550,24.6,14.728,33.132,40.608,241.55,0.0,3.370,-0.223,14.394, NaN,24.591,   NaN,13.69,1019.66,83.69,13.98,18.1,19.2,6.0,6.6,351.0,351.8,5.9,6.5,NaN, NaN,13.2,240.6,237.8,1105748938,1105748938,1,0.6,001738,001738,332.4,33.578940,-120.753508,-0.15,NaN,NaN,14.732, NaN,NaN,NaN, NaN, NaN
20050115,002928,954346,33.579108,-120.753575,24.6,14.728,33.132,40.607,238.57,0.0,3.313,-0.227,14.396, NaN,24.590,   NaN,13.62,1019.65,83.05,13.93,15.6,17.8,6.3,6.7,350.5,352.6,6.2,6.7,NaN, NaN,13.0,274.1,276.8,1105748969,1105748968,1,0.8,001768,001768,336.1,33.578966,-120.753546,-0.17,NaN,NaN,14.732, NaN,NaN,NaN, NaN, NaN
20050115,002958,954377,33.579146,-120.753590,24.6,14.728,33.133,40.609,421.62,0.0,3.332,-0.218,14.396, NaN,24.592,   NaN,13.65,1019.68,82.80,13.96,12.3,14.9,6.2,6.7,350.6,353.1,6.2,6.6,NaN, NaN,12.4,86.5,285.1,1105748998,1105748998,1,0.4,001797,001798,344.4,33.579003,-120.753588,-0.11,NaN,NaN,14.732, NaN,NaN,NaN, NaN, NaN
20050115,003029,954407,33.579166,-120.753586,24.4,14.729,33.132,40.608,902.99,0.0,3.313,3.508,14.398, NaN,24.590,   NaN,13.69,1019.72,82.47,14.01,5.3,8.0,6.4,6.7,349.4,352.1,6.4,6.7,NaN, NaN,12.3,65.4,65.1,1105749029,1105749029,1,0.6,001828,001829,349.9,33.579030,-120.753588,-0.02,NaN,NaN,14.733, NaN,NaN,NaN, NaN, NaN
20050115,003058,954437,33.579173,-120.753575,24.6,14.729,33.133,40.609,1042.60,0.0,3.332,0.930,14.398, NaN,24.591,   NaN,13.73,1019.78,82.40,14.04,0.0,0.5,6.4,6.5,348.2,348.6,6.3,6.4,NaN, NaN,12.7,282.6,265.6,1105749058,1105749058,1,0.2,001858,001858,351.2,33.579033,-120.753581,0.17,NaN,NaN,14.733, NaN,NaN,NaN, NaN, NaN
20050115,003128,954466,33.579150,-120.753528,24.6,14.729,33.133,40.609,1028.00,0.0,3.370,-0.135,14.400, NaN,24.591,   NaN,13.77,1019.79,82.43,14.09,355.7,357.5,6.4,6.2,344.9,346.6,6.4,6.2,NaN, NaN,13.2,84.7,100.8,1105749089,1105749088,1,0.2,001888,001888,349.7,33.579015,-120.753531,0.10,NaN,NaN,14.733, NaN,NaN,NaN, NaN, NaN
20050115,003158,954496,33.579116,-120.753483,24.7,14.730,33.131,40.608,1020.78,0.0,3.351,-0.226,14.400, NaN,24.590,   NaN,13.78,1019.82,82.53,14.11,353.0,357.4,6.5,6.4,341.3,345.7,6.7,6.5,NaN, NaN,12.8,94.1,214.7,1105749118,1105749118,1,0.0,001918,001918,349.9,33.578973,-120.753485,0.02,NaN,NaN,14.734, NaN,NaN,NaN, NaN, NaN
20050115,003228,954526,33.579083,-120.753411,24.8,14.730,33.132,40.609,1007.67,0.0,3.351,-0.183,14.402, NaN,24.590,   NaN,13.82,1019.85,82.79,14.16,351.6,355.4,6.6,6.4,338.9,342.7,6.8,6.6,NaN, NaN,12.6,113.0,71.4,1105749148,1105749148,1,0.3,001947,001948,347.4,33.578946,-120.753411,0.22,NaN,NaN,14.734, NaN,NaN,NaN, NaN, NaN
20050115,003259,954557,33.579088,-120.753350,24.6,14.728,33.132,40.607,803.87,0.0,3.388,-0.226,14.401, NaN,24.590,   NaN,13.87,1019.89,83.11,14.18,350.6,352.8,6.7,6.2,335.1,337.2,6.8,6.3,NaN, NaN,12.5,74.3,82.3,1105749179,1105749178,1,0.6,001978,001978,342.7,33.578945,-120.753330,0.20,NaN,NaN,14.732, NaN,NaN,NaN, NaN, NaN
20050115,003329,954587,33.579108,-120.753270,24.4,14.729,33.134,40.610,379.56,0.0,3.388,-0.183,14.400, NaN,24.592,   NaN,13.92,1019.91,83.58,14.25,351.4,353.4,6.8,6.6,331.1,333.1,6.8,6.6,NaN, NaN,12.3,63.6,74.9,1105749209,1105749209,1,1.3,002009,002009,337.9,33.578966,-120.753240,0.20,NaN,NaN,14.733, NaN,NaN,NaN, NaN, NaN
20050115,003358,954616,33.579100,-120.753215,24.6,14.729,33.132,40.608,221.27,0.0,3.351,-0.224,14.393, NaN,24.590,   NaN,13.90,1019.94,83.93,14.25,353.6,357.0,6.6,7.0,330.0,333.5,6.7,7.0,NaN, NaN,12.6,105.8,86.3,1105749239,1105749238,1,0.7,002038,002038,339.6,33.578958,-120.753186,0.22,NaN,NaN,14.733, NaN,NaN,NaN, NaN, NaN
20050115,003429,954648,33.579065,-120.753150,24.7,14.730,33.131,40.608,470.26,0.0,3.407,-0.221,14.388, NaN,24.590,   NaN,13.90,1019.97,84.35,14.26,353.6,355.9,6.5,6.8,331.2,333.7,6.7,6.9,NaN, NaN,13.4,105.8,107.4,1105749269,1105749269,1,0.4,002068,002069,343.7,33.578928,-120.753135,0.12,NaN,NaN,14.734, NaN,NaN,NaN, NaN, NaN
20050115,003459,954678,33.579016,-120.753083,24.6,14.730,33.133,40.610,882.66,0.0,3.332,-0.221,14.387, NaN,24.591,   NaN,13.91,1019.98,84.55,14.25,347.4,349.9,6.7,6.6,330.1,332.3,6.9,6.9,NaN, NaN,13.6,126.1,160.2,1105749299,1105749299,1,0.3,002099,002099,349.4,33.578883,-120.753085,0.58,NaN,NaN,14.734, NaN,NaN,NaN, NaN, NaN
20050115,003529,954707,33.579010,-120.753005,24.6,14.727,33.135,40.609,730.31,0.0,3.351,-0.207,14.388, NaN,24.593,   NaN,13.81,1019.93,84.19,14.16,342.0,345.2,7.1,6.8,327.9,330.9,7.4,7.0,NaN, NaN,13.6,78.0,68.3,1105749329,1105749329,1,0.5,002129,002129,344.4,33.578873,-120.752995,0.20,NaN,NaN,14.731, NaN,NaN,NaN, NaN, NaN
20050115,003559,954737,33.579066,-120.752956,24.4,14.726,33.134,40.608,329.97,0.0,3.370,-0.123,14.388, NaN,24.593,   NaN,13.75,1019.97,84.13,14.08,346.7,349.9,7.8,7.4,327.6,330.7,7.8,7.4,NaN, NaN,13.7,41.4,52.3,1105749359,1105749359,1,0.9,002158,002159,332.9,33.578935,-120.752911,0.23,NaN,NaN,14.730, NaN,NaN,NaN, NaN, NaN
20050115,003629,954767,33.579125,-120.752933,24.6,14.721,33.136,40.605,687.97,0.0,3.407,-0.221,14.391, NaN,24.595,   NaN,13.77,1019.98,84.19,14.10,360.0,3.0,7.8,7.8,331.0,334.0,7.7,7.7,NaN, NaN,13.5,52.7,1.7,1105749389,1105749389,1,0.6,002189,002189,327.2,33.578996,-120.752878,0.09,NaN,NaN,14.725, NaN,NaN,NaN, NaN, NaN